ENT2WZ EPWA-LGIR

Flight info

Callsign ENT2WZ
Flight time N/A
Altitude 37000
Route EVINA DCT KOTEK DCT KEKED/N0441F390 DCT VERIG DCT LOMOS DCT NIKTI DCT KOROS/N0440F380 DCT NEVRA/N0441F390 UT514 GIVIS T514 XAVIS
Aircraft B738/M-SDGHIJ1RWXY/EB1

Departure

Time 2026-05-06 17:11
Airport Warsaw Chopin Airport (EPWA)

Arrival

Time N/A
Airport Heraklion International Nikos Kazantzakis Airport (LGIR)
Time Latitude Longitude Altitude Speed Heading
2026-05-06 16:32 52.17974 20.96196 338 ft 0 kts 167°
2026-05-06 17:02 52.17975 20.96196 338 ft 2 kts 167°
2026-05-06 17:02 52.17993 20.96190 334 ft 3 kts 168°
2026-05-06 17:02 52.18013 20.96188 336 ft 3 kts 211°
2026-05-06 17:03 52.18024 20.96212 333 ft 3 kts 258°
2026-05-06 17:03 52.18028 20.96242 333 ft 0 kts 258°
2026-05-06 17:05 52.18023 20.96203 334 ft 11 kts 258°
2026-05-06 17:05 52.17991 20.96002 336 ft 21 kts 245°
2026-05-06 17:06 52.17918 20.95937 336 ft 10 kts 155°
2026-05-06 17:06 52.17851 20.95994 336 ft 12 kts 152°
2026-05-06 17:06 52.17760 20.96074 336 ft 16 kts 152°
2026-05-06 17:06 52.17657 20.96162 334 ft 15 kts 151°
2026-05-06 17:07 52.17574 20.96237 335 ft 15 kts 152°
2026-05-06 17:07 52.17448 20.96346 336 ft 23 kts 152°
2026-05-06 17:07 52.17310 20.96464 337 ft 22 kts 153°
2026-05-06 17:07 52.17176 20.96583 333 ft 22 kts 151°
2026-05-06 17:08 52.17046 20.96697 334 ft 21 kts 152°
2026-05-06 17:08 52.16919 20.96808 336 ft 20 kts 152°
2026-05-06 17:08 52.16796 20.96914 335 ft 20 kts 152°
2026-05-06 17:08 52.16679 20.97022 335 ft 19 kts 142°
2026-05-06 17:09 52.16619 20.97209 337 ft 18 kts 114°
2026-05-06 17:09 52.16567 20.97396 336 ft 18 kts 115°
2026-05-06 17:09 52.16515 20.97576 334 ft 17 kts 115°
2026-05-06 17:09 52.16466 20.97749 338 ft 17 kts 115°
2026-05-06 17:10 52.16371 20.97775 336 ft 16 kts 204°
2026-05-06 17:10 52.16309 20.97658 336 ft 15 kts 289°
2026-05-06 17:10 52.16356 20.97488 336 ft 23 kts 294°
2026-05-06 17:10 52.16529 20.96875 337 ft 96 kts 295°
2026-05-06 17:11 52.16896 20.95567 337 ft 156 kts 293°
2026-05-06 17:11 52.17385 20.93792 746 ft 179 kts 295°
2026-05-06 17:11 52.17879 20.91940 1681 ft 173 kts 284°
2026-05-06 17:11 52.18047 20.89988 2409 ft 184 kts 269°
2026-05-06 17:12 52.17913 20.87766 2666 ft 212 kts 258°
2026-05-06 17:12 52.17606 20.85336 2970 ft 233 kts 256°
2026-05-06 17:12 52.17246 20.82643 3403 ft 250 kts 256°
2026-05-06 17:12 52.16800 20.79856 4291 ft 251 kts 244°
2026-05-06 17:13 52.15663 20.77789 5171 ft 253 kts 211°
2026-05-06 17:13 52.14066 20.76585 6126 ft 254 kts 203°
2026-05-06 17:13 52.12382 20.75625 6914 ft 260 kts 201°
2026-05-06 17:13 52.10654 20.74707 7735 ft 263 kts 201°
2026-05-06 17:14 52.08909 20.73788 8603 ft 264 kts 201°
2026-05-06 17:14 52.07148 20.72855 9439 ft 268 kts 202°
2026-05-06 17:14 52.05363 20.71900 10217 ft 272 kts 201°
2026-05-06 17:14 52.03508 20.70898 10531 ft 294 kts 201°
2026-05-06 17:15 52.01487 20.69798 10780 ft 316 kts 201°
2026-05-06 17:15 51.99374 20.68650 11398 ft 323 kts 201°
2026-05-06 17:15 51.97234 20.67490 12212 ft 325 kts 201°
2026-05-06 17:15 51.95087 20.66325 13053 ft 326 kts 201°
2026-05-06 17:16 51.92925 20.65150 13821 ft 329 kts 201°
2026-05-06 17:16 51.90745 20.63964 14499 ft 332 kts 201°
2026-05-06 17:16 51.88539 20.62763 15131 ft 337 kts 201°
2026-05-06 17:16 51.86313 20.61553 15850 ft 338 kts 201°
2026-05-06 17:17 51.84074 20.60338 16580 ft 340 kts 201°
2026-05-06 17:17 51.81820 20.59115 17258 ft 343 kts 201°
2026-05-06 17:17 51.79544 20.57881 17935 ft 346 kts 201°
2026-05-06 17:17 51.77252 20.56639 18531 ft 349 kts 201°
2026-05-06 17:18 51.74940 20.55387 19082 ft 353 kts 201°
2026-05-06 17:18 51.72603 20.54123 19644 ft 356 kts 201°
2026-05-06 17:18 51.70244 20.52849 20206 ft 359 kts 202°
2026-05-06 17:18 51.67868 20.51567 20748 ft 362 kts 202°
2026-05-06 17:19 51.65465 20.50272 21281 ft 365 kts 202°
2026-05-06 17:19 51.63043 20.48968 21815 ft 369 kts 202°
2026-05-06 17:19 51.60602 20.47656 22338 ft 372 kts 202°
2026-05-06 17:19 51.58137 20.46332 22846 ft 375 kts 202°
2026-05-06 17:20 51.55652 20.44999 23339 ft 378 kts 202°
2026-05-06 17:20 51.53150 20.43659 23783 ft 380 kts 202°
2026-05-06 17:20 51.50635 20.42314 24238 ft 382 kts 202°
2026-05-06 17:20 51.48141 20.40981 24688 ft 383 kts 202°
2026-05-06 17:21 51.45570 20.39608 25129 ft 385 kts 201°
2026-05-06 17:21 51.43055 20.38266 25543 ft 387 kts 201°
2026-05-06 17:21 51.40489 20.36901 25960 ft 389 kts 201°
2026-05-06 17:21 51.37857 20.35813 26356 ft 395 kts 193°
2026-05-06 17:22 51.35106 20.35331 26759 ft 399 kts 189°
2026-05-06 17:22 51.32336 20.34947 27156 ft 401 kts 189°
2026-05-06 17:22 51.29549 20.34565 27532 ft 403 kts 189°
2026-05-06 17:22 51.26747 20.34173 27900 ft 405 kts 189°
2026-05-06 17:23 51.23941 20.33772 28262 ft 407 kts 189°
2026-05-06 17:23 51.21115 20.33362 28608 ft 408 kts 189°
2026-05-06 17:23 51.18285 20.32947 29015 ft 409 kts 189°
2026-05-06 17:23 51.15450 20.32529 29362 ft 410 kts 189°
2026-05-06 17:24 51.12603 20.32107 29682 ft 412 kts 189°
2026-05-06 17:24 51.09734 20.31680 29867 ft 417 kts 189°
2026-05-06 17:24 51.06824 20.31249 30000 ft 422 kts 189°
2026-05-06 17:24 51.03895 20.30818 30269 ft 423 kts 189°
2026-05-06 17:25 51.00963 20.30388 30558 ft 424 kts 189°
2026-05-06 17:25 50.98024 20.29958 30868 ft 424 kts 189°
2026-05-06 17:25 50.95087 20.29528 31173 ft 424 kts 189°
2026-05-06 17:25 50.92144 20.29097 31485 ft 424 kts 189°
2026-05-06 17:26 50.89212 20.28669 31827 ft 423 kts 189°
2026-05-06 17:26 50.86277 20.28240 32161 ft 423 kts 190°
2026-05-06 17:26 50.83350 20.27812 32469 ft 423 kts 190°
2026-05-06 17:26 50.80416 20.27384 32755 ft 423 kts 190°
2026-05-06 17:27 50.77487 20.26957 33075 ft 423 kts 190°
2026-05-06 17:27 50.74562 20.26532 33413 ft 421 kts 190°
2026-05-06 17:27 50.71641 20.26106 33634 ft 423 kts 191°
2026-05-06 17:27 50.68704 20.25679 33843 ft 424 kts 191°
2026-05-06 17:28 50.65738 20.25562 34105 ft 430 kts 182°
2026-05-06 17:28 50.62761 20.26140 34406 ft 434 kts 174°
2026-05-06 17:28 50.59831 20.27403 34667 ft 439 kts 168°
2026-05-06 17:28 50.56920 20.28903 34905 ft 440 kts 168°
2026-05-06 17:29 50.54022 20.30430 35130 ft 440 kts 167°
2026-05-06 17:29 50.51123 20.31957 35392 ft 439 kts 167°
2026-05-06 17:29 50.48230 20.33469 35641 ft 438 kts 168°
2026-05-06 17:30 50.42407 20.36462 35847 ft 443 kts 168°
2026-05-06 17:30 50.39477 20.37953 36061 ft 443 kts 168°